[[{"header":{"parameterUnit":"m.s-1","parameterCategory":1,"la1":30.2991,"la2":30.254,"lo1":-89.0895,"lo2":-89.0444,"dy":0.0017,"dx":0.0017,"nx":28,"ny":28,"refTime":"2025-09-01T03:00:00:Z","depth":0,"parameterNumber":2,"parameterNumberName":"U-component_of_WINDS"},"data":[0,0,0,0,0,0,0,0,0,0,0,0,0,0,0,0,0,0,0,0,0,0,0,0,0,0,0,0,0,0,0,0,0,0,0,0,0,0,0,0,0,0,0,0,0,0,0,0,0,0,0,0,0,0,0,0,0,0,-5.5884,-5.5884,0,-5.5944,-5.5945,-5.5945,-5.5856,-5.5853,-5.5849,-5.5846,-5.5908,-5.5912,-5.5917,0,0,0,0,0,0,0,0,0,0,0,0,0,-5.5691,-5.5695,-5.5884,-5.5884,-5.5885,-5.5944,-5.5945,-5.5945,-5.5856,-5.5852,-5.5849,-5.5845,-5.5907,-5.5912,-5.5917,0,0,0,0,0,0,0,0,0,0,0,0,0,-5.5766,-5.5697,-5.5883,-5.5848,-5.5845,-5.5944,-5.5945,-5.5946,-5.5857,-5.5852,-5.5848,-5.5843,-5.5905,-5.5911,-5.5918,-5.6054,0,0,-5.5939,-5.5942,0,0,0,0,0,0,0,0,-5.5762,-5.5773,-5.5852,-5.585,-5.5848,-5.5887,-5.5899,-5.5982,-5.5858,-5.5853,-5.5846,-5.5841,-5.5905,-5.5911,-5.5933,-5.6057,-5.606,-5.594,-5.5944,-5.5947,-5.5949,0,0,0,0,0,0,0,-5.5757,-5.577,-5.5907,-5.5853,-5.5851,-5.5829,-5.5834,-5.5915,-5.5904,-5.5853,-5.5846,-5.5855,-5.5903,-5.5927,-5.5934,-5.6061,-5.5939,-5.5946,-5.595,-5.5952,-5.6301,-5.6306,0,0,0,0,0,0,-5.5756,-5.5766,-5.5905,-5.5909,-5.5792,-5.5836,-5.5842,-5.5879,-5.5903,-5.5902,-5.5859,-5.585,-5.5917,-5.5926,-5.5936,-5.6098,-5.5947,-5.5953,-5.5957,-5.6296,-5.6302,-5.6308,0,0,0,0,0,0,-5.5752,-5.5769,-5.5903,-5.5836,-5.5851,-5.5844,-5.5887,-5.5883,-5.5907,-5.5908,-5.5905,-5.5885,-5.5914,-5.5926,-5.6026,-5.6099,-5.5956,-5.5962,-5.629,-5.6298,-5.6305,-5.6422,0,0,0,0,0,0,-5.5747,-5.5768,-5.582,-5.5838,-5.5855,-5.5993,-5.5892,-5.5888,-5.5919,-5.5909,-5.5932,-5.5931,-5.5911,-5.6016,-5.6033,-5.6105,-5.5968,-5.6283,-5.6294,-5.6303,-5.6412,-5.6433,-5.6451,0,0,0,0,0,-5.574,-5.585,-5.5823,-5.584,-5.592,-5.5997,-5.6007,-5.5982,-5.5925,-5.5977,-5.5978,-5.593,-5.6088,-5.6027,-5.6045,-5.6121,-5.6279,-5.6291,-5.6302,-5.6403,-5.6429,-5.6451,0,0,0,0,0,0,-5.584,-5.5852,-5.5822,-5.5941,-5.5969,-5.5982,-5.6046,-5.601,-5.6054,-5.6042,-5.6009,-5.6015,-5.6122,-5.6131,-5.6063,-5.6255,-5.6174,-5.619,-5.6245,-5.6269,-5.6289,-5.6284,-5.5973,0,0,0,0,0,-5.5876,-5.5938,-5.5945,-5.6049,-5.6065,-5.6054,-5.6086,-5.6064,-5.6092,-5.6103,-5.6111,-5.6139,-5.6195,-5.6233,-5.6284,-5.6413,-5.6417,-5.6474,-5.6494,-5.651,-5.6524,-5.6594,-5.6619,-5.6346,-5.6346,-5.6346,0,0,-5.5951,-5.5965,-5.6006,-5.607,-5.6089,-5.6154,-5.6064,-5.6136,-5.6184,-5.6114,-5.6209,-5.6216,-5.6245,-5.6361,-5.6412,-5.6372,-5.66,-5.6525,-5.6537,-5.6543,-5.6608,-5.6634,-5.6657,-5.6354,-5.6353,-5.6351,0,0,-5.6121,-5.6138,-5.6227,-5.6248,-5.6278,-5.627,-5.6292,-5.6311,-5.6313,-5.6408,-5.6357,-5.6413,-5.651,-5.6534,-5.6558,-5.6739,-5.6697,-5.6756,-5.6859,-5.6927,-5.6949,-5.6968,-5.7033,-5.7056,-5.677,-5.677,-5.6771,0,-5.621,-5.6306,-5.6277,-5.6354,-5.6383,-5.6323,-5.6414,-5.6436,-5.6481,-5.6503,-5.6457,-5.6578,-5.6594,-5.6714,-5.6759,-5.678,-5.6804,-5.6753,-5.6948,-5.6967,-5.6984,-5.7046,-5.707,-5.6777,-5.6777,-5.6776,-5.6775,0,-5.6414,-5.6482,-5.655,-5.6597,-5.6634,-5.6717,-5.6701,-5.6742,-5.6718,-5.6715,-5.6813,-5.683,-5.6884,-5.6911,-5.6887,-5.7029,-5.7003,-5.6953,-5.6872,-5.7018,-5.7075,-5.7098,-5.6788,-5.6785,-5.6783,-5.6781,0,0,-5.6648,-5.6678,-5.6704,-5.6725,-5.6754,-5.6806,-5.6886,-5.694,-5.6976,-5.701,-5.7077,-5.7161,-5.7116,-5.7144,-5.7123,-5.7183,-5.7326,-5.7126,-5.7126,-5.7163,-5.7483,-5.7521,-5.7548,-5.7298,-5.7302,-5.7306,-5.7481,0,-5.6818,-5.6958,-5.6935,-5.707,-5.7132,-5.7077,-5.7147,-5.7173,-5.7173,-5.7226,-5.7225,-5.7285,-5.7221,-5.7237,-5.7294,-5.7296,-5.7389,-5.7283,-5.7361,-5.7364,-5.7355,-5.7578,-5.7618,-5.7782,-5.7503,-5.7507,-5.751,0,-5.7034,-5.7077,-5.7219,-5.724,-5.7265,-5.7328,-5.7376,-5.7427,-5.7456,-5.7451,-5.7484,-5.7452,-5.7533,-5.745,-5.7561,-5.749,-5.752,-5.7526,-5.7532,-5.7538,-5.7446,-5.7591,-5.7834,-5.7859,-5.7544,-5.7542,-5.7539,0,-5.7192,-5.7284,-5.7381,-5.7401,-5.7427,-5.7473,-5.7486,-5.751,-5.7544,-5.7586,-5.7608,-5.7659,-5.7686,-5.7727,-5.7709,-5.765,-5.7825,-5.774,-5.7824,-5.7824,-5.7863,-5.7861,-5.8114,-5.7882,-5.7882,-5.7881,-5.7881,0,-5.7384,-5.7473,-5.7452,-5.7512,-5.7611,-5.7584,-5.7682,-5.7688,-5.771,-5.777,-5.7725,-5.7783,-5.7756,-5.7812,-5.7799,-5.7894,-5.7907,-5.7906,-5.7901,-5.791,-5.7911,-5.793,-5.7918,-5.7888,-5.7886,-5.7885,-5.7884,0,-5.7576,-5.7566,-5.7668,-5.7685,-5.7692,-5.7764,-5.7778,-5.7834,-5.7831,-5.7908,-5.7924,-5.7919,-5.7982,-5.7969,-5.8039,-5.803,-5.8149,-5.8131,-5.814,-5.8136,-5.822,-5.8213,-5.8495,-5.8531,-5.8276,-5.8278,-5.828,0,-5.77,-5.7767,-5.7792,-5.7829,-5.7846,-5.7906,-5.7941,-5.7917,-5.7955,-5.7994,-5.8046,-5.8105,-5.8152,-5.8256,-5.8258,-5.8312,-5.8294,-5.839,-5.8302,-5.8309,-5.8296,-5.8293,-5.83,-5.8407,-5.841,-5.8412,-5.8414,0,-5.792,-5.7912,-5.7964,-5.8015,-5.8057,-5.8096,-5.813,-5.8164,-5.8143,-5.8188,-5.8253,-5.8289,-5.836,-5.8421,-5.847,-5.8484,-5.8447,-5.8442,-5.8464,-5.8474,-5.8477,-5.8477,-5.8188,-5.8435,-5.8433,-5.8432,-5.8431,-5.843,-5.8082,-5.8139,-5.8166,-5.8226,-5.8249,-5.8283,-5.8337,-5.8341,-5.8394,-5.8451,-5.8433,-5.8508,-5.8535,-5.8598,-5.8618,-5.8675,-5.864,-5.8672,-5.868,-5.8688,-5.8699,-5.8468,-5.8684,-5.8684,-5.8683,-5.8683,-5.8682,0,-5.83,-5.8315,-5.837,-5.842,-5.8467,-5.8428,-5.8464,-5.8506,-5.8572,-5.8601,-5.8648,-5.8723,-5.8782,-5.8789,-5.8844,-5.8889,-5.8874,-5.8905,-5.8901,-5.8905,-5.8727,-5.8703,-5.8917,-5.8917,-5.8917,-5.8916,-5.8916,-5.8916,-5.8419,-5.8515,-5.8511,-5.8618,-5.8632,-5.8704,-5.8729,-5.876,-5.8783,-5.8869,-5.8917,-5.8922,-5.8942,-5.8999,-5.9051,-5.9052,-5.9075,-5.9113,-5.9107,-5.8941,-5.8918,-5.8895,-5.8872,-5.9118,-5.9118,-5.928,-5.9281,-5.9282]},{"header":{"parameterUnit":"m.s-1","parameterCategory":1,"la1":30.2991,"la2":30.254,"lo1":-89.0895,"lo2":-89.0444,"dy":0.0017,"dx":0.0017,"nx":28,"ny":28,"refTime":"2025-09-01T03:00:00:Z","depth":0,"parameterNumber":3,"parameterNumberName":"V-component_of_WINDS"},"data":[0,0,0,0,0,0,0,0,0,0,0,0,0,0,0,0,0,0,0,0,0,0,0,0,0,0,0,0,0,0,0,0,0,0,0,0,0,0,0,0,0,0,0,0,0,0,0,0,0,0,0,0,0,0,0,0,0,0,-1.2306,-1.2306,0,-1.2266,-1.2266,-1.2266,-1.2197,-1.2195,-1.2194,-1.2193,-1.2154,-1.2154,-1.2155,0,0,0,0,0,0,0,0,0,0,0,0,0,-1.2324,-1.2324,-1.2306,-1.2306,-1.2305,-1.2267,-1.2266,-1.2265,-1.2197,-1.2195,-1.2194,-1.2192,-1.2154,-1.2154,-1.2155,0,0,0,0,0,0,0,0,0,0,0,0,0,-1.2303,-1.2324,-1.2306,-1.2266,-1.2262,-1.2267,-1.2266,-1.2265,-1.2197,-1.2195,-1.2193,-1.2192,-1.2154,-1.2154,-1.2155,-1.2195,0,0,-1.2155,-1.2156,0,0,0,0,0,0,0,0,-1.2305,-1.2303,-1.2273,-1.2269,-1.2265,-1.2235,-1.2258,-1.2242,-1.2198,-1.2222,-1.2193,-1.2191,-1.2183,-1.218,-1.2177,-1.2193,-1.2192,-1.2155,-1.2156,-1.2156,-1.2156,0,0,0,0,0,0,0,-1.2306,-1.2304,-1.229,-1.2272,-1.2267,-1.2251,-1.2246,-1.2254,-1.2214,-1.222,-1.2215,-1.2211,-1.218,-1.2177,-1.2176,-1.2191,-1.2155,-1.2156,-1.2156,-1.2156,-1.2238,-1.224,0,0,0,0,0,0,-1.2313,-1.2306,-1.2292,-1.2289,-1.228,-1.2252,-1.2246,-1.2246,-1.2214,-1.2207,-1.2213,-1.2208,-1.2178,-1.2176,-1.2174,-1.2219,-1.2156,-1.2156,-1.2156,-1.2236,-1.2238,-1.224,0,0,0,0,0,0,-1.2314,-1.2313,-1.2293,-1.2296,-1.2292,-1.2254,-1.2254,-1.2246,-1.2243,-1.2208,-1.2201,-1.2217,-1.2176,-1.2174,-1.219,-1.2217,-1.2156,-1.2156,-1.2233,-1.2236,-1.2239,-1.231,0,0,0,0,0,0,-1.2315,-1.2313,-1.2328,-1.2297,-1.2292,-1.231,-1.2256,-1.2247,-1.2244,-1.2237,-1.221,-1.2204,-1.2174,-1.219,-1.219,-1.2216,-1.2157,-1.2231,-1.2235,-1.2238,-1.2305,-1.2315,-1.2323,0,0,0,0,0,-1.2315,-1.235,-1.2329,-1.2328,-1.231,-1.2312,-1.2309,-1.2274,-1.2246,-1.2261,-1.2238,-1.2205,-1.2214,-1.2192,-1.2192,-1.2218,-1.2229,-1.2234,-1.2238,-1.2301,-1.2313,-1.2323,0,0,0,0,0,0,-1.2386,-1.2345,-1.2322,-1.2347,-1.2333,-1.23,-1.2318,-1.2288,-1.2282,-1.2276,-1.2233,-1.2228,-1.2249,-1.2235,-1.2212,-1.2255,-1.2216,-1.2221,-1.2264,-1.2275,-1.2284,-1.2287,-1.2157,0,0,0,0,0,-1.2405,-1.2409,-1.2373,-1.2399,-1.2393,-1.2357,-1.2356,-1.233,-1.2314,-1.2308,-1.2286,-1.2273,-1.2272,-1.2273,-1.227,-1.2302,-1.2295,-1.232,-1.2329,-1.2337,-1.2342,-1.2357,-1.2367,-1.2255,-1.2255,-1.2255,0,0,-1.2444,-1.2422,-1.2427,-1.2413,-1.2399,-1.2404,-1.2352,-1.2361,-1.2364,-1.2309,-1.2323,-1.2307,-1.2288,-1.2313,-1.2322,-1.2301,-1.2371,-1.2343,-1.2349,-1.235,-1.2363,-1.2373,-1.2383,-1.2258,-1.2258,-1.2257,0,0,-1.2517,-1.25,-1.252,-1.2507,-1.2486,-1.2461,-1.2466,-1.2437,-1.2424,-1.2436,-1.2395,-1.2399,-1.2399,-1.2388,-1.2382,-1.2449,-1.2418,-1.245,-1.2498,-1.2513,-1.2522,-1.253,-1.2554,-1.2563,-1.2455,-1.2455,-1.2455,0,-1.2567,-1.2573,-1.2534,-1.2544,-1.2539,-1.2489,-1.2508,-1.2498,-1.2478,-1.2475,-1.2452,-1.2451,-1.2435,-1.2455,-1.2472,-1.2469,-1.2473,-1.2453,-1.2524,-1.2531,-1.2538,-1.256,-1.2569,-1.2459,-1.2458,-1.2458,-1.2457,0,-1.2637,-1.2641,-1.266,-1.2641,-1.2637,-1.2653,-1.2616,-1.2617,-1.2591,-1.2569,-1.2582,-1.2562,-1.2554,-1.2556,-1.2532,-1.2573,-1.2561,-1.2532,-1.2491,-1.2553,-1.2573,-1.2582,-1.2464,-1.2463,-1.2462,-1.2461,0,0,-1.2754,-1.2712,-1.272,-1.271,-1.2683,-1.2686,-1.2698,-1.269,-1.2692,-1.268,-1.2689,-1.269,-1.2662,-1.2656,-1.2629,-1.2642,-1.2696,-1.2611,-1.261,-1.2628,-1.2741,-1.2763,-1.2773,-1.2676,-1.2677,-1.2678,-1.2742,0,-1.2821,-1.284,-1.2804,-1.2832,-1.2835,-1.2787,-1.2798,-1.2782,-1.2762,-1.2762,-1.2739,-1.2741,-1.2704,-1.27,-1.2711,-1.2688,-1.2719,-1.2682,-1.2684,-1.2685,-1.269,-1.2784,-1.2808,-1.2869,-1.275,-1.2751,-1.2752,0,-1.2903,-1.2893,-1.2921,-1.2891,-1.2891,-1.2901,-1.289,-1.2891,-1.2873,-1.2857,-1.2849,-1.2817,-1.2827,-1.2788,-1.2801,-1.2778,-1.2776,-1.2765,-1.2766,-1.2765,-1.2722,-1.2785,-1.2888,-1.2897,-1.2764,-1.2763,-1.2762,0,-1.2985,-1.298,-1.2995,-1.2988,-1.2954,-1.2962,-1.2949,-1.2928,-1.2925,-1.2915,-1.2913,-1.2905,-1.2901,-1.2895,-1.2862,-1.2837,-1.288,-1.2838,-1.2867,-1.2868,-1.2878,-1.2878,-1.2982,-1.2877,-1.2877,-1.2877,-1.2877,0,-1.3064,-1.3083,-1.3031,-1.3041,-1.306,-1.3019,-1.3039,-1.3021,-1.3003,-1.3008,-1.2966,-1.2972,-1.2927,-1.2928,-1.2902,-1.2917,-1.2916,-1.2903,-1.2896,-1.2907,-1.2908,-1.2905,-1.29,-1.2879,-1.2879,-1.2878,-1.2878,0,-1.316,-1.3126,-1.314,-1.3106,-1.3098,-1.3114,-1.3084,-1.3092,-1.3068,-1.3075,-1.3074,-1.3037,-1.3036,-1.3002,-1.2994,-1.2977,-1.3002,-1.2987,-1.3009,-1.3004,-1.3035,-1.3032,-1.314,-1.3152,-1.304,-1.3042,-1.3042,0,-1.3213,-1.3226,-1.3193,-1.3193,-1.3181,-1.3182,-1.3178,-1.3138,-1.3135,-1.3115,-1.3125,-1.312,-1.3114,-1.3114,-1.3087,-1.3081,-1.3065,-1.3103,-1.3064,-1.3074,-1.3065,-1.3065,-1.3066,-1.3112,-1.3113,-1.3114,-1.3115,0,-1.3309,-1.3292,-1.3288,-1.3278,-1.3274,-1.3265,-1.3252,-1.3255,-1.3211,-1.3211,-1.3208,-1.3204,-1.3195,-1.3191,-1.3179,-1.3165,-1.3133,-1.3128,-1.3134,-1.3145,-1.3157,-1.3151,-1.3031,-1.3126,-1.3125,-1.3124,-1.3123,-1.3123,-1.3385,-1.3394,-1.3372,-1.3369,-1.3355,-1.3344,-1.3349,-1.3326,-1.3323,-1.3312,-1.3289,-1.329,-1.327,-1.3251,-1.324,-1.3241,-1.3221,-1.3231,-1.3233,-1.3236,-1.3242,-1.3157,-1.3238,-1.3238,-1.3238,-1.3237,-1.3237,0,-1.3479,-1.3462,-1.346,-1.3443,-1.3441,-1.341,-1.3395,-1.3395,-1.3396,-1.338,-1.3375,-1.3372,-1.3367,-1.3339,-1.3332,-1.3338,-1.3323,-1.3337,-1.3336,-1.3333,-1.3259,-1.3255,-1.3349,-1.3349,-1.3349,-1.3349,-1.3349,-1.3349,-1.3528,-1.3541,-1.3521,-1.3527,-1.351,-1.3511,-1.3504,-1.3494,-1.3481,-1.348,-1.3476,-1.3457,-1.3436,-1.3426,-1.3421,-1.3412,-1.3411,-1.3431,-1.3418,-1.3349,-1.3339,-1.3328,-1.3324,-1.3431,-1.3431,-1.3491,-1.3492,-1.3492]}]]